This demonstration page uses our WeatherBlox Daily Observations layout. Learn more.

Hourly Observations for July 9, 2017

Temp ( °F °C ) Dew Point ( °F °C ) Humidity (%) Winds ( mph kmh ) Pressure ( in mb ) Visibility ( mi km ) Precip ( " mm )
12:15 am 00:15 Cloudy 72 22 63 17 73 73 NNW 6 9 29.97 1015 10 16.09344 0 0
12:35 am 00:35 Mostly Cloudy 72 22 63 17 73 73 NNW 5 7 29.97 1015 10 16.09344 0 0
12:55 am 00:55 Mostly Cloudy 72 22 63 17 73 73 NNW 7 11 29.97 1015 10 16.09344 0 0
1:15 am 01:15 Cloudy 72 22 63 17 73 73 NNW 8 13 29.97 1015 10 16.09344 0 0
1:35 am 01:35 Mostly Cloudy 72 22 63 17 73 73 N 8 13 29.97 1015 10 16.09344 0 0
1:55 am 01:55 Partly Cloudy 70 21 63 17 78 78 NNW 6 9 29.97 1015 10 16.09344 0 0
2:15 am 02:15 Clear 70 21 63 17 78 78 N 5 7 30 1016 10 16.09344 0 0
2:35 am 02:35 Clear 70 21 63 17 78 78 N 6 9 30 1016 10 16.09344 0 0
2:55 am 02:55 Clear 70 21 63 17 78 78 Calm 30 1016 10 16.09344 0 0
3:15 am 03:15 Clear 68 20 63 17 83 83 Calm 30 1016 10 16.09344 0 0
3:35 am 03:35 Clear 68 20 63 17 83 83 Calm 30 1016 10 16.09344 0 0
3:55 am 03:55 Clear 66 19 63 17 88 88 Calm 30 1016 10 16.09344 0 0
4:15 am 04:15 Clear 68 20 63 17 83 83 Calm 30 1016 10 16.09344 0 0
4:35 am 04:35 Clear 64 18 63 17 94 94 NNW 3 6 30 1016 10 16.09344 0 0
4:55 am 04:55 Clear 64 18 63 17 94 94 N 7 11 30.03 1017 10 16.09344 0 0
5:15 am 05:15 Clear 66 19 63 17 88 88 NNW 3 6 30.03 1017 10 16.09344 0 0
5:35 am 05:35 Clear 64 18 63 17 94 94 NNW 7 11 30.03 1017 10 16.09344 0 0
5:55 am 05:55 Sunny 64 18 63 17 94 94 NNW 5 7 30.03 1017 10 16.09344 0 0
6:15 am 06:15 Sunny 63 17 63 17 100 100 N 3 6 30.03 1017 10 16.09344 0 0
6:35 am 06:35 Sunny 64 18 63 17 94 94 N 3 6 30.06 1018 10 16.09344 0 0
6:55 am 06:55 Sunny 68 20 63 17 83 83 Calm 30.06 1018 10 16.09344 0 0
7:15 am 07:15 Sunny 68 20 63 17 83 83 Calm 30.06 1018 10 16.09344 0 0
7:35 am 07:35 Sunny 70 21 64 18 83 83 Calm 30.06 1018 10 16.09344 0 0
7:55 am 07:55 Sunny 72 22 64 18 78 78 Calm 30.09 1019 10 16.09344 0 0
8:15 am 08:15 Sunny 72 22 63 17 73 73 N 10 17 30.09 1019 10 16.09344 0 0
8:35 am 08:35 Sunny 73 23 63 17 69 69 NNW 10 17 30.09 1019 10 16.09344 0 0
8:55 am 08:55 Sunny 73 23 61 16 65 65 N 13 20 30.09 1019 10 16.09344 0 0
9:15 am 09:15 Sunny 73 23 59 15 61 61 NNW 10 17 30.09 1019 10 16.09344 0 0
9:35 am 09:35 Sunny 75 24 57 14 54 54 NNW 14 22 30.09 1019 10 16.09344 0 0
9:55 am 09:55 Sunny 75 24 59 15 57 57 NNW 12 19 30.09 1019 10 16.09344 0 0
10:15 am 10:15 Sunny 77 25 54 12 44 44 N 9 15 30.09 1019 10 16.09344 0 0
10:35 am 10:35 Sunny 77 25 54 12 44 44 N 10 17 30.12 1020 10 16.09344 0 0
10:55 am 10:55 Sunny 77 25 54 12 44 44 N 7 11 30.12 1020 10 16.09344 0 0
11:15 am 11:15 Sunny 77 25 54 12 44 44 N 8 13 30.12 1020 10 16.09344 0 0
11:35 am 11:35 Sunny 79 26 55 13 45 45 NNW 10 17 30.12 1020 10 16.09344 0 0
11:55 am 11:55 Sunny 79 26 54 12 42 42 NW 3 6 30.12 1020 10 16.09344 0 0
12:15 pm 12:15 Sunny 79 26 54 12 42 42 NNW 7 11 30.12 1020 10 16.09344 0 0
12:35 pm 12:35 Sunny 81 27 55 13 42 42 NW 5 7 30.12 1020 10 16.09344 0 0
12:55 pm 12:55 Sunny 79 26 54 12 42 42 Calm 30.12 1020 10 16.09344 0 0
1:15 pm 13:15 Sunny 82 28 55 13 40 40 W 8 13 30.12 1020 10 16.09344 0 0
1:35 pm 13:35 Sunny 81 27 55 13 42 42 NNW 6 9 30.12 1020 10 16.09344 0 0
1:55 pm 13:55 Sunny 82 28 55 13 40 40 WNW 9 15 30.09 1019 10 16.09344 0 0
2:15 pm 14:15 Sunny 84 29 55 13 37 37 Calm 30.09 1019 10 16.09344 0 0
2:35 pm 14:35 Sunny 82 28 55 13 40 40 WNW 6 9 30.09 1019 10 16.09344 0 0
2:55 pm 14:55 Sunny 82 28 55 13 40 40 NNW 7 11 30.09 1019 10 16.09344 0 0
3:15 pm 15:15 Sunny 82 28 55 13 40 40 WSW 3 6 30.09 1019 10 16.09344 0 0
3:35 pm 15:35 Sunny 82 28 57 14 42 42 NE 6 9 30.09 1019 10 16.09344 0 0
3:55 pm 15:55 Sunny 82 28 57 14 42 42 NNW 9 15 30.09 1019 10 16.09344 0 0
4:15 pm 16:15 Sunny 82 28 57 14 42 42 NNW 5 7 30.09 1019 10 16.09344 0 0
4:35 pm 16:35 Sunny 82 28 55 13 40 40 W 3 6 30.09 1019 10 16.09344 0 0
4:55 pm 16:55 Sunny 84 29 59 15 43 43 NW 3 6 30.06 1018 10 16.09344 0 0
5:15 pm 17:15 Sunny 82 28 57 14 42 42 Calm 30.06 1018 10 16.09344 0 0
5:35 pm 17:35 Sunny 84 29 59 15 43 43 W 3 6 30.06 1018 10 16.09344 0 0
5:55 pm 17:55 Sunny 82 28 59 15 45 45 SW 3 6 30.06 1018 10 16.09344 0 0
6:15 pm 18:15 Sunny 82 28 57 14 42 42 Calm 30.06 1018 10 16.09344 0 0
6:35 pm 18:35 Sunny 82 28 57 14 42 42 ESE 3 6 30.06 1018 10 16.09344 0 0
6:55 pm 18:55 Sunny 82 28 57 14 42 42 Calm 30.06 1018 10 16.09344 0 0
7:15 pm 19:15 Sunny 81 27 55 13 42 42 Calm 30.06 1018 10 16.09344 0 0
7:35 pm 19:35 Sunny 81 27 59 15 48 48 NE 5 7 30.06 1018 10 16.09344 0 0
7:55 pm 19:55 Sunny 81 27 57 14 45 45 NE 5 7 30.06 1018 10 16.09344 0 0
8:15 pm 20:15 Sunny 81 27 57 14 45 45 NE 3 6 30.06 1018 10 16.09344 0 0
8:35 pm 20:35 Sunny 79 26 59 15 51 51 ENE 3 6 30.06 1018 10 16.09344 0 0
8:55 pm 20:55 Clear 77 25 59 15 54 54 E 5 7 30.06 1018 10 16.09344 0 0
9:15 pm 21:15 Clear 77 25 59 15 54 54 Calm 30.06 1018 10 16.09344 0 0
9:35 pm 21:35 Clear 77 25 59 15 54 54 E 3 6 30.06 1018 10 16.09344 0 0
9:55 pm 21:55 Clear 75 24 61 16 61 61 Calm 30.06 1018 10 16.09344 0 0
10:15 pm 22:15 Clear 73 23 61 16 65 65 Calm 30.09 1019 10 16.09344 0 0
10:35 pm 22:35 Partly Cloudy 70 21 64 18 83 83 Calm 30.09 1019 10 16.09344 0 0
10:55 pm 22:55 Partly Cloudy 70 21 64 18 83 83 Calm 30.09 1019 10 16.09344 0 0
11:15 pm 23:15 Mostly Cloudy 70 21 64 18 83 83 Calm 30.09 1019 10 16.09344 0 0
11:35 pm 23:35 Mostly Cloudy 70 21 64 18 83 83 Calm 30.09 1019 10 16.09344 0 0
11:55 pm 23:55 Mostly Cloudy 70 21 64 18 83 83 Calm 30.09 1019 10 16.09344 0 0

Powered by AerisWeather